AIJ781 MMCZ-MMCE

Flight info

Callsign AIJ781
Flight time 0h 55m
Altitude 36000
Route CZM7C CZM UT30 ROLMI DCT DUTKA
Aircraft A321/M-SDE3FGHIRWY/LB1

Departure

Time 2026-05-04 02:56
Airport Cozumel International Airport (MMCZ)

Arrival

Time 2026-05-04 03:51
Airport Ciudad del Carmen International Airport (MMCE)
Time Latitude Longitude Altitude Speed Heading
2026-05-04 02:28 20.51205 -86.92983 22 ft 0 kts 206°
2026-05-04 02:33 20.51206 -86.92983 22 ft 0 kts 206°
2026-05-04 02:46 20.51219 -86.92976 22 ft 4 kts 206°
2026-05-04 02:46 20.51242 -86.92963 22 ft 4 kts 223°
2026-05-04 02:46 20.51249 -86.92945 22 ft 3 kts 295°
2026-05-04 02:46 20.51240 -86.92924 23 ft 4 kts 297°
2026-05-04 02:47 20.51236 -86.92918 22 ft 0 kts 297°
2026-05-04 02:50 20.51237 -86.92918 22 ft 1 kts 297°
2026-05-04 02:50 20.51266 -86.92979 24 ft 17 kts 297°
2026-05-04 02:51 20.51327 -86.93043 22 ft 11 kts
2026-05-04 02:51 20.51404 -86.93030 22 ft 11 kts 352°
2026-05-04 02:51 20.51459 -86.93076 22 ft 10 kts 321°
2026-05-04 02:51 20.51533 -86.93127 23 ft 18 kts 328°
2026-05-04 02:52 20.51640 -86.93207 21 ft 19 kts 324°
2026-05-04 02:52 20.51707 -86.93322 24 ft 18 kts 295°
2026-05-04 02:52 20.51761 -86.93443 23 ft 18 kts 296°
2026-05-04 02:52 20.51816 -86.93563 23 ft 18 kts 296°
2026-05-04 02:53 20.51869 -86.93680 24 ft 17 kts 295°
2026-05-04 02:53 20.51921 -86.93796 22 ft 18 kts 295°
2026-05-04 02:53 20.51949 -86.93919 22 ft 17 kts 262°
2026-05-04 02:53 20.51973 -86.93995 23 ft 11 kts
2026-05-04 02:54 20.51988 -86.93941 22 ft 9 kts 117°
2026-05-04 02:54 20.51975 -86.93915 22 ft 0 kts 114°
2026-05-04 02:55 20.51948 -86.93855 23 ft 40 kts 116°
2026-05-04 02:55 20.51712 -86.93336 22 ft 112 kts 116°
2026-05-04 02:55 20.51293 -86.92414 67 ft 158 kts 116°
2026-05-04 02:56 20.50778 -86.91363 676 ft 160 kts 116°
2026-05-04 02:56 20.50313 -86.90280 1324 ft 161 kts 114°
2026-05-04 02:56 20.49840 -86.89139 1646 ft 179 kts 114°
2026-05-04 02:56 20.49315 -86.87856 1841 ft 200 kts 113°
2026-05-04 02:57 20.48729 -86.86439 1986 ft 217 kts 112°
2026-05-04 02:57 20.48107 -86.84935 2218 ft 226 kts 113°
2026-05-04 02:57 20.47449 -86.83363 2640 ft 235 kts 113°
2026-05-04 02:57 20.46781 -86.81783 3582 ft 232 kts 114°
2026-05-04 02:58 20.46116 -86.80209 4432 ft 236 kts 114°
2026-05-04 02:58 20.45440 -86.78608 5197 ft 239 kts 114°
2026-05-04 02:58 20.44681 -86.77023 5931 ft 243 kts 126°
2026-05-04 02:58 20.43424 -86.75804 6662 ft 249 kts 152°
2026-05-04 02:59 20.41757 -86.75319 7367 ft 254 kts 179°
2026-05-04 02:59 20.40051 -86.75750 8073 ft 256 kts 210°
2026-05-04 02:59 20.38733 -86.77015 8757 ft 259 kts 238°
2026-05-04 02:59 20.38142 -86.78807 9400 ft 260 kts 267°
2026-05-04 03:00 20.38447 -86.80695 10068 ft 261 kts 296°
2026-05-04 03:00 20.39568 -86.82194 10739 ft 262 kts 322°
2026-05-04 03:00 20.41016 -86.83356 11451 ft 260 kts 325°
2026-05-04 03:00 20.42453 -86.84498 11996 ft 257 kts 317°
2026-05-04 03:01 20.43888 -86.85692 12439 ft 270 kts 324°
2026-05-04 03:01 20.45455 -86.86951 12607 ft 293 kts 322°
2026-05-04 03:01 20.46975 -86.88456 12742 ft 312 kts 310°
2026-05-04 03:01 20.48195 -86.90414 12883 ft 329 kts 296°
2026-05-04 03:02 20.48935 -86.92810 13020 ft 352 kts 278°
2026-05-04 03:02 20.48977 -86.95478 13228 ft 369 kts 263°
2026-05-04 03:02 20.48295 -86.98153 13736 ft 377 kts 250°
2026-05-04 03:02 20.47366 -87.00782 14332 ft 381 kts 251°
2026-05-04 03:03 20.46441 -87.03444 14950 ft 383 kts 251°
2026-05-04 03:03 20.45514 -87.06121 15540 ft 386 kts 250°
2026-05-04 03:03 20.44581 -87.08811 16120 ft 388 kts 250°
2026-05-04 03:03 20.43641 -87.11518 16668 ft 391 kts 250°
2026-05-04 03:04 20.42693 -87.14247 17199 ft 394 kts 250°
2026-05-04 03:04 20.41737 -87.16986 17719 ft 396 kts 250°
2026-05-04 03:04 20.40769 -87.19748 18246 ft 399 kts 250°
2026-05-04 03:04 20.39799 -87.22530 18750 ft 401 kts 250°
2026-05-04 03:05 20.38819 -87.25324 19235 ft 404 kts 250°
2026-05-04 03:05 20.37833 -87.28134 19708 ft 407 kts 250°
2026-05-04 03:05 20.36837 -87.30972 20162 ft 410 kts 250°
2026-05-04 03:05 20.35833 -87.33827 20618 ft 412 kts 250°
2026-05-04 03:06 20.34820 -87.36698 21067 ft 415 kts 250°
2026-05-04 03:06 20.33797 -87.39590 21519 ft 418 kts 250°
2026-05-04 03:06 20.32773 -87.42502 21978 ft 420 kts 251°
2026-05-04 03:06 20.31751 -87.45424 22416 ft 422 kts 250°
2026-05-04 03:07 20.30718 -87.48372 22820 ft 427 kts 251°
2026-05-04 03:07 20.29674 -87.51337 23236 ft 428 kts 251°
2026-05-04 03:07 20.28621 -87.54316 23644 ft 430 kts 251°
2026-05-04 03:07 20.27567 -87.57300 24009 ft 432 kts 251°
2026-05-04 03:08 20.26505 -87.60320 24382 ft 437 kts 250°
2026-05-04 03:08 20.25444 -87.63339 24762 ft 439 kts 250°
2026-05-04 03:08 20.24396 -87.66375 25107 ft 437 kts 250°
2026-05-04 03:08 20.23357 -87.69384 25478 ft 442 kts 252°
2026-05-04 03:09 20.22270 -87.72410 25768 ft 435 kts 251°
2026-05-04 03:09 20.21167 -87.75415 25948 ft 440 kts 250°
2026-05-04 03:09 20.20059 -87.78478 26296 ft 443 kts 250°
2026-05-04 03:09 20.18973 -87.81531 26555 ft 444 kts 251°
2026-05-04 03:10 20.17869 -87.84623 26913 ft 448 kts 251°
2026-05-04 03:10 20.16773 -87.87725 27280 ft 448 kts 251°
2026-05-04 03:10 20.15679 -87.90840 27619 ft 449 kts 251°
2026-05-04 03:10 20.14582 -87.93957 27951 ft 450 kts 251°
2026-05-04 03:11 20.13477 -87.97082 28260 ft 452 kts 250°
2026-05-04 03:11 20.12365 -88.00214 28555 ft 453 kts 250°
2026-05-04 03:11 20.11247 -88.03343 28921 ft 452 kts 250°
2026-05-04 03:11 20.10132 -88.06464 29346 ft 450 kts 250°
2026-05-04 03:12 20.09025 -88.09561 29764 ft 447 kts 250°
2026-05-04 03:12 20.07923 -88.12649 30157 ft 446 kts 250°
2026-05-04 03:12 20.06824 -88.15726 30569 ft 443 kts 251°
2026-05-04 03:12 20.05730 -88.18787 30984 ft 441 kts 251°
2026-05-04 03:13 20.04640 -88.21836 31384 ft 440 kts 251°
2026-05-04 03:13 20.03556 -88.24869 31796 ft 438 kts 251°
2026-05-04 03:13 20.02478 -88.27882 32198 ft 436 kts 251°
2026-05-04 03:13 20.01400 -88.30890 32597 ft 435 kts 251°
2026-05-04 03:14 20.00327 -88.33890 33007 ft 432 kts 251°
2026-05-04 03:14 19.99260 -88.36866 33379 ft 431 kts 251°
2026-05-04 03:14 19.98194 -88.39838 33731 ft 430 kts 251°
2026-05-04 03:14 19.97126 -88.42810 34098 ft 429 kts 251°
2026-05-04 03:15 19.96062 -88.45770 34466 ft 428 kts 251°
2026-05-04 03:15 19.95000 -88.48727 34831 ft 427 kts 252°
2026-05-04 03:15 19.93946 -88.51662 35169 ft 426 kts 251°
2026-05-04 03:15 19.92880 -88.54617 35351 ft 429 kts 250°
2026-05-04 03:16 19.91807 -88.57586 35489 ft 432 kts 250°
2026-05-04 03:16 19.90723 -88.60573 35731 ft 434 kts 250°
2026-05-04 03:16 19.89641 -88.63567 35967 ft 435 kts 250°
2026-05-04 03:17 19.87490 -88.69541 36017 ft 431 kts 250°
2026-05-04 03:17 19.85362 -88.75447 36017 ft 430 kts 250°
2026-05-04 03:18 19.83216 -88.81382 36020 ft 431 kts 250°
2026-05-04 03:18 19.81063 -88.87322 36017 ft 430 kts 250°
2026-05-04 03:19 19.78910 -88.93258 36014 ft 430 kts 250°
2026-05-04 03:19 19.76750 -88.99198 36016 ft 432 kts 250°
2026-05-04 03:20 19.74594 -89.05108 36022 ft 432 kts 250°
2026-05-04 03:20 19.72431 -89.11053 36026 ft 432 kts 250°
2026-05-04 03:21 19.70275 -89.16986 36032 ft 431 kts 250°
2026-05-04 03:21 19.68111 -89.22917 36033 ft 431 kts 250°
2026-05-04 03:22 19.65948 -89.28844 36031 ft 430 kts 250°
2026-05-04 03:22 19.63778 -89.34764 36028 ft 430 kts 250°
2026-05-04 03:23 19.61623 -89.40683 36026 ft 431 kts 250°
2026-05-04 03:23 19.59459 -89.46612 36031 ft 431 kts 250°
2026-05-04 03:24 19.57291 -89.52524 36028 ft 430 kts 250°
2026-05-04 03:24 19.55113 -89.58437 36029 ft 431 kts 250°
2026-05-04 03:25 19.52931 -89.64351 36036 ft 430 kts 250°
2026-05-04 03:25 19.50754 -89.70254 36046 ft 430 kts 250°
2026-05-04 03:26 19.48944 -89.75166 36048 ft 430 kts 250°
2026-05-04 03:26 19.46768 -89.81076 36041 ft 429 kts 250°
2026-05-04 03:27 19.44585 -89.86958 36031 ft 429 kts 249°
2026-05-04 03:27 19.42308 -89.92813 36030 ft 429 kts 248°
2026-05-04 03:28 19.39573 -89.99552 36026 ft 429 kts 248°
2026-05-04 03:28 19.37602 -90.04423 36023 ft 430 kts 248°
2026-05-04 03:29 19.35267 -90.10246 36030 ft 430 kts 248°
2026-05-04 03:29 19.34111 -90.13137 35928 ft 431 kts 248°
2026-05-04 03:29 19.32943 -90.16065 35448 ft 432 kts 248°
2026-05-04 03:29 19.31769 -90.19003 34622 ft 435 kts 248°
2026-05-04 03:30 19.30582 -90.21958 33911 ft 435 kts 248°
2026-05-04 03:30 19.29399 -90.24891 33379 ft 431 kts 248°
2026-05-04 03:30 19.28233 -90.27800 32812 ft 427 kts 249°
2026-05-04 03:30 19.27077 -90.30685 32243 ft 424 kts 248°
2026-05-04 03:31 19.25927 -90.33547 31640 ft 422 kts 249°
2026-05-04 03:31 19.24783 -90.36395 31073 ft 419 kts 248°
2026-05-04 03:31 19.23558 -90.39188 30488 ft 418 kts 242°
2026-05-04 03:31 19.22033 -90.41792 29917 ft 415 kts 239°
2026-05-04 03:32 19.20484 -90.44362 29352 ft 412 kts 239°
2026-05-04 03:32 19.18943 -90.46907 28794 ft 410 kts 239°
2026-05-04 03:32 19.17413 -90.49437 28239 ft 407 kts 239°
2026-05-04 03:32 19.15892 -90.51950 27696 ft 404 kts 240°
2026-05-04 03:33 19.14382 -90.54441 27169 ft 400 kts 240°
2026-05-04 03:33 19.12891 -90.56907 26663 ft 397 kts 240°
2026-05-04 03:33 19.11413 -90.59362 26152 ft 393 kts 240°
2026-05-04 03:33 19.09952 -90.61788 25670 ft 390 kts 240°
2026-05-04 03:34 19.08503 -90.64185 25192 ft 385 kts 241°
2026-05-04 03:34 19.07066 -90.66551 24730 ft 379 kts 241°
2026-05-04 03:34 19.05650 -90.68881 24269 ft 374 kts 242°
2026-05-04 03:34 19.04240 -90.71190 23791 ft 372 kts 242°
2026-05-04 03:35 19.02844 -90.73487 23334 ft 369 kts 242°
2026-05-04 03:35 19.01471 -90.75767 22876 ft 366 kts 242°
2026-05-04 03:35 19.00108 -90.78036 22408 ft 365 kts 241°
2026-05-04 03:35 18.98761 -90.80272 21947 ft 365 kts 240°
2026-05-04 03:36 18.97400 -90.82519 21486 ft 361 kts 240°
2026-05-04 03:36 18.96028 -90.84772 21015 ft 360 kts 240°
2026-05-04 03:36 18.94693 -90.86960 20547 ft 358 kts 240°
2026-05-04 03:36 18.93352 -90.89162 20071 ft 356 kts 240°
2026-05-04 03:37 18.92017 -90.91362 19599 ft 354 kts 239°
2026-05-04 03:37 18.90697 -90.93542 19139 ft 352 kts 239°
2026-05-04 03:37 18.89381 -90.95714 18670 ft 349 kts 239°
2026-05-04 03:37 18.88070 -90.97866 18168 ft 347 kts 239°
2026-05-04 03:38 18.86766 -91.00001 17724 ft 344 kts 239°
2026-05-04 03:38 18.85471 -91.02116 17273 ft 341 kts 238°
2026-05-04 03:38 18.84189 -91.04214 16837 ft 339 kts 238°
2026-05-04 03:38 18.82917 -91.06299 16406 ft 337 kts 238°
2026-05-04 03:39 18.81654 -91.08377 15981 ft 334 kts 238°
2026-05-04 03:39 18.80408 -91.10429 15548 ft 331 kts 238°
2026-05-04 03:39 18.79168 -91.12473 15129 ft 329 kts 238°
2026-05-04 03:39 18.77934 -91.14503 14726 ft 328 kts 238°
2026-05-04 03:40 18.76714 -91.16498 14518 ft 319 kts 238°
2026-05-04 03:40 18.75519 -91.18451 14183 ft 315 kts 238°
2026-05-04 03:40 18.74331 -91.20389 13793 ft 313 kts 238°
2026-05-04 03:40 18.73156 -91.22318 13398 ft 312 kts 238°
2026-05-04 03:41 18.72000 -91.24215 13011 ft 312 kts 238°
2026-05-04 03:41 18.70834 -91.26129 12646 ft 309 kts 237°
2026-05-04 03:41 18.69676 -91.28028 12248 ft 308 kts 237°
2026-05-04 03:41 18.68519 -91.29923 11875 ft 306 kts 237°
2026-05-04 03:42 18.67366 -91.31807 11496 ft 304 kts 237°
2026-05-04 03:42 18.66216 -91.33682 11096 ft 303 kts 237°
2026-05-04 03:42 18.65216 -91.35623 10695 ft 301 kts 249°
2026-05-04 03:42 18.64667 -91.37739 10287 ft 299 kts 262°
2026-05-04 03:43 18.64590 -91.39913 10067 ft 298 kts 273°
2026-05-04 03:43 18.64684 -91.42107 9781 ft 301 kts 273°
2026-05-04 03:43 18.64767 -91.44300 9482 ft 294 kts 272°
2026-05-04 03:43 18.64839 -91.46415 9353 ft 282 kts 272°
2026-05-04 03:44 18.64907 -91.48446 9129 ft 274 kts 272°
2026-05-04 03:44 18.64973 -91.50446 8790 ft 272 kts 272°
2026-05-04 03:44 18.65041 -91.52408 8431 ft 270 kts 272°
2026-05-04 03:44 18.65110 -91.54379 8080 ft 269 kts 273°
2026-05-04 03:45 18.65181 -91.56353 7515 ft 268 kts 273°
2026-05-04 03:45 18.65250 -91.58294 6803 ft 261 kts 273°
2026-05-04 03:45 18.65311 -91.60172 6312 ft 250 kts 270°
2026-05-04 03:45 18.64865 -91.61871 5877 ft 239 kts 236°
2026-05-04 03:46 18.63640 -91.62973 5509 ft 230 kts 205°
2026-05-04 03:46 18.62114 -91.63445 5194 ft 228 kts 193°
2026-05-04 03:46 18.60580 -91.63897 4874 ft 229 kts 198°
2026-05-04 03:46 18.59089 -91.64505 4520 ft 229 kts 205°
2026-05-04 03:47 18.57680 -91.65271 4168 ft 226 kts 211°
2026-05-04 03:47 18.56369 -91.66164 3833 ft 218 kts 216°
2026-05-04 03:47 18.55200 -91.67129 3508 ft 209 kts 222°
2026-05-04 03:47 18.54237 -91.68224 3183 ft 200 kts 245°
2026-05-04 03:48 18.54091 -91.69572 2912 ft 180 kts 289°
2026-05-04 03:48 18.54754 -91.70595 2645 ft 166 kts 325°
2026-05-04 03:48 18.55646 -91.71340 2397 ft 164 kts 321°
2026-05-04 03:48 18.56512 -91.72110 2141 ft 162 kts 323°
2026-05-04 03:49 18.57370 -91.72874 1921 ft 161 kts 323°
2026-05-04 03:49 18.58230 -91.73635 1707 ft 160 kts 323°
2026-05-04 03:49 18.59083 -91.74386 1473 ft 160 kts 323°
2026-05-04 03:49 18.59940 -91.75140 1263 ft 161 kts 322°
2026-05-04 03:50 18.60785 -91.75911 1036 ft 160 kts 322°
2026-05-04 03:50 18.61624 -91.76686 812 ft 160 kts 322°
2026-05-04 03:50 18.62463 -91.77457 589 ft 160 kts 321°
2026-05-04 03:50 18.63274 -91.78263 371 ft 159 kts 320°
2026-05-04 03:51 18.64085 -91.78965 146 ft 146 kts 322°
2026-05-04 03:51 18.64838 -91.79635 31 ft 135 kts 321°
2026-05-04 03:51 18.65414 -91.80143 25 ft 65 kts 320°
2026-05-04 03:51 18.65601 -91.80309 24 ft 27 kts 321°
2026-05-04 03:52 18.65744 -91.80435 25 ft 26 kts 320°
2026-05-04 03:52 18.65869 -91.80547 26 ft 16 kts 312°
2026-05-04 03:52 18.65830 -91.80627 26 ft 14 kts 200°
2026-05-04 03:52 18.65737 -91.80634 27 ft 14 kts 148°
2026-05-04 03:53 18.65666 -91.80569 27 ft 14 kts 140°
2026-05-04 03:53 18.65593 -91.80504 27 ft 14 kts 140°
2026-05-04 03:53 18.65519 -91.80439 26 ft 14 kts 140°
2026-05-04 03:53 18.65444 -91.80373 26 ft 14 kts 140°
2026-05-04 03:54 18.65369 -91.80306 29 ft 14 kts 139°
2026-05-04 03:54 18.65294 -91.80239 27 ft 14 kts 140°
2026-05-04 03:54 18.65217 -91.80172 27 ft 14 kts 140°
2026-05-04 03:54 18.65171 -91.80132 29 ft 3 kts 150°
2026-05-04 03:55 18.65159 -91.80132 26 ft 2 kts 191°
2026-05-04 03:55 18.65152 -91.80136 26 ft 2 kts 205°
2026-05-04 03:55 18.65131 -91.80158 26 ft 4 kts 229°
2026-05-04 03:55 18.65118 -91.80173 26 ft 0 kts 229°